"read_dt","SO2 (ppb)","flags","PMT voltage (V)","lamp voltage (V)","lamp intensity (Hz)","internal temp (C)","react chamber temp (C)","sample flow (l/min)","pres (mmHg)","SO2 bkg (ppb)","SO2 coefficient"
2014-04-05 00:00:00,2635E-2,5C000400,-0724,0947,10861,024.7,045.2,0.156,755.2,01.16,0.508
2014-04-05 00:01:00,2620E-2,5C000400,-0724,0946,10862,024.7,045.2,0.155,755.2,01.16,0.508
2014-04-05 00:02:00,2646E-2,5C000400,-0724,0946,11018,024.7,045.2,0.155,755.2,01.16,0.508
2014-04-05 00:03:00,2581E-2,5C000400,-0724,0946,11135,024.7,045.2,0.155,755.2,01.16,0.508
2014-04-05 00:04:00,2631E-2,5C000400,-0724,0946,11106,024.7,045.2,0.155,755.2,01.16,0.508
2014-04-05 00:05:00,2592E-2,5C000400,-0724,0946,11035,024.8,045.2,0.155,755.2,01.16,0.508
2014-04-05 00:06:00,2610E-2,5C000400,-0724,0945,11084,024.8,045.2,0.155,755.2,01.16,0.508
2014-04-05 00:07:00,2600E-2,5C000400,-0724,0946,11233,024.8,045.2,0.155,755.2,01.16,0.508
2014-04-05 00:08:00,2636E-2,5C000400,-0724,0946,11145,024.8,045.2,0.155,755.2,01.16,0.508
2014-04-05 00:09:00,2621E-2,5C000400,-0724,0946,11123,024.8,045.2,0.155,755.2,01.16,0.508
2014-04-05 00:10:00,2597E-2,5C000400,-0724,0946,11085,024.8,045.2,0.155,755.2,01.16,0.508
2014-04-05 00:11:00,2616E-2,5C000400,-0724,0946,10949,024.8,045.2,0.155,755.2,01.16,0.508
2014-04-05 00:12:00,2638E-2,5C000400,-0724,0945,11044,024.8,045.2,0.155,755.2,01.16,0.508
2014-04-05 00:13:00,2640E-2,5C000400,-0724,0946,11112,024.8,045.2,0.155,755.3,01.16,0.508
2014-04-05 00:14:00,2677E-2,5C000400,-0724,0945,11014,024.8,045.2,0.155,755.3,01.16,0.508
2014-04-05 00:15:00,2604E-2,5C000400,-0724,0945,11109,024.8,045.2,0.155,755.3,01.16,0.508
2014-04-05 00:16:00,2660E-2,5C000400,-0724,0946,10977,024.8,045.2,0.155,755.3,01.16,0.508
2014-04-05 00:17:00,2630E-2,5C000400,-0724,0945,10884,024.9,045.2,0.155,755.3,01.16,0.508
2014-04-05 00:18:00,2601E-2,5C000400,-0724,0945,11150,024.9,045.2,0.155,755.3,01.16,0.508
2014-04-05 00:19:00,2613E-2,5C000400,-0724,0946,10967,024.8,045.2,0.155,755.3,01.16,0.508
2014-04-05 00:20:00,2602E-2,5C000400,-0724,0945,11079,024.9,045.2,0.155,755.3,01.16,0.508
2014-04-05 00:21:00,2572E-2,5C000400,-0724,0946,11142,024.9,045.2,0.155,755.3,01.16,0.508
2014-04-05 00:22:00,2636E-2,5C000400,-0724,0945,10925,024.9,045.2,0.155,755.3,01.16,0.508
2014-04-05 00:23:00,2632E-2,5C000400,-0724,0945,11010,024.9,045.2,0.155,755.3,01.16,0.508
2014-04-05 00:24:00,2638E-2,5C000400,-0724,0946,11130,024.9,045.2,0.155,755.3,01.16,0.508
2014-04-05 00:25:00,2595E-2,5C000400,-0724,0945,11001,024.9,045.2,0.155,755.3,01.16,0.508
2014-04-05 00:26:00,2629E-2,5C000400,-0724,0945,11063,024.9,045.2,0.155,755.3,01.16,0.508
2014-04-05 00:27:00,2613E-2,5C000400,-0724,0946,11135,024.9,045.2,0.155,755.3,01.16,0.508
2014-04-05 00:28:00,2595E-2,5C000400,-0724,0945,11156,024.9,045.2,0.155,755.3,01.16,0.508
2014-04-05 00:29:00,2605E-2,5C000400,-0724,0946,11052,024.9,045.2,0.155,755.3,01.16,0.508
2014-04-05 00:30:00,2633E-2,5C000400,-0724,0945,10941,025.0,045.2,0.155,755.4,01.16,0.508
2014-04-05 00:31:00,2628E-2,5C000400,-0724,0946,10913,025.0,045.2,0.155,755.3,01.16,0.508
2014-04-05 00:32:00,2610E-2,5C000400,-0724,0945,10956,025.0,045.2,0.155,755.3,01.16,0.508
2014-04-05 00:33:00,2670E-2,5C000400,-0724,0946,11133,025.0,045.2,0.155,755.3,01.16,0.508
2014-04-05 00:34:00,2608E-2,5C000400,-0724,0946,10961,025.0,045.2,0.155,755.3,01.16,0.508
2014-04-05 00:35:00,2603E-2,5C000400,-0724,0946,11112,025.0,045.2,0.155,755.3,01.16,0.508
2014-04-05 00:36:00,2640E-2,5C000400,-0724,0946,11123,025.0,045.2,0.155,755.4,01.16,0.508
2014-04-05 00:37:00,2630E-2,5C000400,-0724,0946,11000,025.0,045.2,0.155,755.4,01.16,0.508
2014-04-05 00:38:00,2594E-2,5C000400,-0724,0945,11020,025.0,045.2,0.155,755.4,01.16,0.508
2014-04-05 00:39:00,2642E-2,5C000400,-0724,0945,11045,025.0,045.2,0.155,755.4,01.16,0.508
2014-04-05 00:40:00,2616E-2,5C000400,-0724,0945,11150,025.0,045.2,0.155,755.4,01.16,0.508
2014-04-05 00:41:00,2623E-2,5C000400,-0724,0946,11073,025.0,045.2,0.155,755.4,01.16,0.508
2014-04-05 00:42:00,2606E-2,5C000400,-0724,0945,10976,025.1,045.2,0.155,755.4,01.16,0.508
2014-04-05 00:43:00,2643E-2,5C000400,-0724,0945,11139,025.1,045.2,0.155,755.4,01.16,0.508
2014-04-05 00:44:00,2624E-2,5C000400,-0724,0946,11076,025.1,045.2,0.155,755.4,01.16,0.508
2014-04-05 00:45:00,2618E-2,5C000400,-0724,0945,11172,025.1,045.2,0.155,755.3,01.16,0.508
2014-04-05 00:46:00,2650E-2,5C000400,-0724,0945,11022,025.1,045.2,0.155,755.4,01.16,0.508
2014-04-05 00:47:00,2627E-2,5C000400,-0724,0945,11080,025.1,045.2,0.154,755.4,01.16,0.508
2014-04-05 00:48:00,2643E-2,5C000400,-0724,0946,11126,025.1,045.2,0.155,755.4,01.16,0.508
2014-04-05 00:49:00,2607E-2,5C000400,-0724,0946,11018,025.1,045.2,0.154,755.4,01.16,0.508
2014-04-05 00:50:00,2611E-2,5C000400,-0724,0945,11119,025.1,045.2,0.155,755.4,01.16,0.508
2014-04-05 00:51:00,2640E-2,5C000400,-0724,0945,10999,025.1,045.2,0.154,755.3,01.16,0.508
2014-04-05 00:52:00,2584E-2,5C000400,-0724,0945,11189,025.1,045.2,0.154,755.3,01.16,0.508
2014-04-05 00:53:00,2648E-2,5C000400,-0724,0945,11075,025.1,045.2,0.154,755.3,01.16,0.508
2014-04-05 00:54:00,2662E-2,5C000400,-0724,0945,10982,025.1,045.2,0.154,755.3,01.16,0.508
2014-04-05 00:55:00,2620E-2,5C000400,-0724,0945,11131,025.1,045.2,0.154,755.3,01.16,0.508
2014-04-05 00:56:00,2585E-2,5C000400,-0724,0947,11027,025.2,045.2,0.154,755.3,01.16,0.508
2014-04-05 00:57:00,2664E-2,5C000400,-0724,0946,11135,025.2,045.2,0.154,755.3,01.16,0.508
2014-04-05 00:58:00,2632E-2,5C000400,-0724,0946,11014,025.2,045.2,0.154,755.3,01.16,0.508
2014-04-05 00:59:00,2641E-2,5C000400,-0724,0946,11069,025.2,045.2,0.154,755.2,01.16,0.508
2014-04-05 01:00:00,2619E-2,5C000400,-0724,0946,10843,025.2,045.2,0.154,755.3,01.16,0.508
2014-04-05 01:01:00,2653E-2,5C000400,-0724,0945,11022,025.2,045.2,0.154,755.3,01.16,0.508
2014-04-05 01:02:00,2670E-2,5C000400,-0724,0946,11008,025.2,045.2,0.154,755.3,01.16,0.508
2014-04-05 01:03:00,2648E-2,5C000400,-0724,0944,11054,025.2,045.2,0.154,755.2,01.16,0.508
2014-04-05 01:04:00,2605E-2,5C000400,-0724,0946,10978,025.2,045.2,0.154,755.2,01.16,0.508
2014-04-05 01:05:00,2604E-2,5C000400,-0724,0946,10581,025.2,045.2,0.154,755.2,01.16,0.508
2014-04-05 01:06:00,2631E-2,5C000400,-0724,0945,10991,025.3,045.2,0.154,755.2,01.16,0.508
2014-04-05 01:07:00,2634E-2,5C000400,-0724,0945,11110,025.3,045.2,0.154,755.3,01.16,0.508
2014-04-05 01:08:00,2626E-2,5C000400,-0724,0945,11034,025.3,045.2,0.154,755.3,01.16,0.508
2014-04-05 01:09:00,2633E-2,5C000400,-0724,0946,11076,025.3,045.2,0.154,755.3,01.16,0.508
2014-04-05 01:10:00,2648E-2,5C000400,-0724,0946,10996,025.3,045.2,0.154,755.2,01.16,0.508
2014-04-05 01:11:00,2653E-2,5C000400,-0724,0945,11074,025.3,045.2,0.154,755.2,01.16,0.508
2014-04-05 01:12:00,2649E-2,5C000400,-0724,0946,11061,025.3,045.2,0.154,755.2,01.16,0.508
2014-04-05 01:13:00,2642E-2,5C000400,-0724,0945,11079,025.3,045.2,0.154,755.2,01.16,0.508
2014-04-05 01:14:00,2634E-2,5C000400,-0724,0946,10986,025.3,045.2,0.154,755.2,01.16,0.508
2014-04-05 01:15:00,2631E-2,5C000400,-0724,0945,11026,025.3,045.2,0.154,755.2,01.16,0.508
2014-04-05 01:16:00,2678E-2,5C000400,-0724,0946,11028,025.3,045.2,0.154,755.2,01.16,0.508
2014-04-05 01:17:00,2684E-2,5C000400,-0724,0946,11227,025.3,045.2,0.154,755.2,01.16,0.508
2014-04-05 01:18:00,2624E-2,5C000400,-0724,0945,11171,025.3,045.2,0.154,755.2,01.16,0.508
2014-04-05 01:19:00,2688E-2,5C000400,-0724,0945,10930,025.4,045.2,0.154,755.2,01.16,0.508
2014-04-05 01:20:00,2616E-2,5C000400,-0724,0945,11063,025.4,045.2,0.154,755.1,01.16,0.508
2014-04-05 01:21:00,2647E-2,5C000400,-0724,0945,11128,025.4,045.2,0.154,755.1,01.16,0.508
2014-04-05 01:22:00,2617E-2,5C000400,-0724,0946,11047,025.4,045.2,0.154,755.1,01.16,0.508
2014-04-05 01:23:00,2646E-2,5C000400,-0724,0946,11145,025.4,045.2,0.154,755.1,01.16,0.508
2014-04-05 01:24:00,2600E-2,5C000400,-0724,0946,11128,025.4,045.2,0.154,755.1,01.16,0.508
2014-04-05 01:25:00,2619E-2,5C000400,-0724,0946,11145,025.4,045.2,0.154,755.1,01.16,0.508
2014-04-05 01:26:00,2619E-2,5C000400,-0724,0946,11099,025.4,045.2,0.154,755.1,01.16,0.508
2014-04-05 01:27:00,2637E-2,5C000400,-0724,0946,11024,025.4,045.2,0.154,755.2,01.16,0.508
2014-04-05 01:28:00,2637E-2,5C000400,-0724,0945,11115,025.4,045.2,0.154,755.1,01.16,0.508
2014-04-05 01:29:00,2661E-2,5C000400,-0724,0945,11047,025.5,045.2,0.154,755.1,01.16,0.508
2014-04-05 01:30:00,2641E-2,5C000400,-0724,0946,11034,025.5,045.2,0.154,755.1,01.16,0.508
2014-04-05 01:31:00,2650E-2,5C000400,-0724,0945,11128,025.5,045.2,0.160,755.0,01.17,0.508
2014-04-05 01:32:00,2674E-2,5C000400,-0724,0945,11054,025.5,045.2,0.154,755.0,01.17,0.508
2014-04-05 01:33:00,2644E-2,5C000400,-0724,0946,11049,025.5,045.2,0.162,755.0,01.17,0.508
2014-04-05 01:34:00,2611E-2,5C000400,-0724,0945,10998,025.5,045.2,0.155,754.9,01.17,0.508
2014-04-05 01:35:00,2639E-2,5C000400,-0724,0945,11064,025.5,045.2,0.166,753.9,01.17,0.508
2014-04-05 01:36:00,2569E-2,5C000400,-0724,0945,11042,025.5,045.2,0.166,753.8,01.17,0.508
2014-04-05 01:37:00,2349E-2,5C000400,-0724,0946,11106,025.5,045.2,0.166,753.8,01.17,0.508
2014-04-05 01:38:00,2161E-2,5C000400,-0724,0945,11137,025.5,045.2,0.166,753.9,01.17,0.508
2014-04-05 01:39:00,1984E-2,5C000400,-0724,0944,11081,025.6,045.2,0.166,753.9,01.17,0.508
2014-04-05 01:40:00,1866E-2,5C000400,-0724,0945,11021,025.6,045.2,0.166,753.8,01.17,0.508
2014-04-05 01:41:00,1770E-2,5C000400,-0724,0945,11019,025.6,045.2,0.166,753.9,01.17,0.508
2014-04-05 01:42:00,1679E-2,5C000400,-0724,0945,11071,025.6,045.2,0.166,753.8,01.17,0.508
2014-04-05 01:43:00,1613E-2,5C000400,-0724,0945,11004,025.6,045.2,0.166,753.9,01.17,0.508
2014-04-05 01:44:00,1534E-2,5C000400,-0724,0945,11250,025.6,045.2,0.166,753.9,01.17,0.508
2014-04-05 01:45:00,1503E-2,5C000400,-0724,0945,11032,025.6,045.2,0.166,753.8,01.17,0.508
2014-04-05 01:46:00,1432E-2,5C000400,-0724,0945,11156,025.6,045.2,0.166,753.8,01.17,0.508
2014-04-05 01:47:00,1397E-2,5C000400,-0724,0944,11088,025.6,045.2,0.166,753.9,01.17,0.508
2014-04-05 01:48:00,1387E-2,5C000400,-0724,0945,11041,025.7,045.2,0.166,753.9,01.17,0.508
2014-04-05 01:49:00,1344E-2,5C000400,-0724,0944,10986,025.7,045.2,0.166,754.0,01.17,0.508
2014-04-05 01:50:00,1321E-2,5C000400,-0724,0944,10934,025.7,045.2,0.166,754.0,01.17,0.508
2014-04-05 01:51:00,1305E-2,5C000400,-0724,0944,10987,025.7,045.2,0.166,753.9,01.17,0.508
2014-04-05 01:52:00,1324E-2,5C000400,-0724,0945,11110,025.7,045.2,0.166,753.9,01.17,0.508
2014-04-05 01:53:00,1270E-2,5C000400,-0724,0944,11064,025.7,045.2,0.166,754.0,01.17,0.508
2014-04-05 01:54:00,1262E-2,5C000400,-0724,0943,11065,025.7,045.2,0.166,754.0,01.17,0.508
2014-04-05 01:55:00,1241E-2,5C000400,-0724,0945,11038,025.7,045.2,0.166,754.1,01.17,0.508
2014-04-05 01:56:00,1249E-2,5C000400,-0724,0943,11001,025.7,045.2,0.166,754.1,01.17,0.508
2014-04-05 01:57:00,1227E-2,5C000400,-0724,0943,11233,025.7,045.2,0.166,754.1,01.17,0.508
2014-04-05 01:58:00,1237E-2,5C000400,-0724,0944,11117,025.7,045.2,0.167,754.1,01.17,0.508
2014-04-05 01:59:00,1193E-2,5C000400,-0724,0943,11247,025.7,045.2,0.168,754.0,01.17,0.508
2014-04-05 02:00:00,1209E-2,5C000400,-0724,0944,11090,025.8,045.2,0.168,754.1,01.17,0.508
2014-04-05 02:01:00,1156E-2,5C000400,-0724,0943,11016,025.8,045.2,0.169,754.0,01.17,0.508
2014-04-05 02:02:00,1154E-2,5C000400,-0724,0943,11000,025.8,045.2,0.169,754.0,01.17,0.508
2014-04-05 02:03:00,1125E-2,5C000400,-0724,0944,11007,025.8,045.2,0.169,754.0,01.17,0.508
2014-04-05 02:04:00,1142E-2,5C000400,-0724,0942,11028,025.8,045.2,0.169,754.0,01.17,0.508
2014-04-05 02:05:00,1097E-2,5C000400,-0724,0943,11081,025.8,045.2,0.169,754.1,01.17,0.508
2014-04-05 02:06:00,1079E-2,5C000400,-0724,0943,11238,025.8,045.2,0.169,754.0,01.17,0.508
2014-04-05 02:07:00,1100E-2,5C000400,-0724,0944,11107,025.8,045.2,0.169,754.0,01.17,0.508
2014-04-05 02:08:00,1086E-2,5C000400,-0724,0942,11038,025.8,045.2,0.169,754.0,01.17,0.508
2014-04-05 02:09:00,1086E-2,5C000400,-0724,0942,10927,025.9,045.2,0.169,754.0,01.17,0.508
2014-04-05 02:10:00,1038E-2,5C000400,-0724,0943,11025,025.9,045.2,0.169,754.0,01.17,0.508
2014-04-05 02:11:00,1047E-2,5C000400,-0724,0942,11128,025.9,045.2,0.169,754.0,01.17,0.508
2014-04-05 02:12:00,1043E-2,5C000400,-0724,0943,11050,025.9,045.2,0.169,754.0,01.17,0.508
2014-04-05 02:13:00,1033E-2,5C000400,-0724,0942,11059,025.9,045.2,0.169,754.0,01.17,0.508
2014-04-05 02:14:00,1032E-2,5C000400,-0724,0943,11062,025.9,045.2,0.169,754.0,01.17,0.508
2014-04-05 02:15:00,1024E-2,5C000400,-0724,0942,11037,025.9,045.2,0.169,754.0,01.17,0.508
2014-04-05 02:16:00,1028E-2,5C000400,-0724,0941,11116,025.9,045.2,0.170,754.1,01.17,0.508
2014-04-05 02:17:00,1036E-2,5C000400,-0724,0942,11097,025.9,045.2,0.170,754.0,01.17,0.508
2014-04-05 02:18:00,1036E-2,5C000400,-0724,0941,11120,025.9,045.2,0.169,754.0,01.17,0.508
2014-04-05 02:19:00,1007E-2,5C000400,-0724,0942,11092,026.0,045.2,0.170,754.0,01.17,0.508
2014-04-05 02:20:00,1005E-2,5C000400,-0724,0942,11254,026.0,045.2,0.169,754.1,01.17,0.508
2014-04-05 02:21:00,9964E-3,5C000400,-0724,0941,11058,026.0,045.2,0.169,754.1,01.17,0.508
2014-04-05 02:22:00,9807E-3,5C000400,-0724,0941,10951,026.0,045.2,0.170,754.0,01.17,0.508
2014-04-05 02:23:00,9833E-3,5C000400,-0724,0941,10889,026.0,045.2,0.169,754.1,01.17,0.508
2014-04-05 02:24:00,9764E-3,5C000400,-0724,0941,11011,026.0,045.2,0.170,754.0,01.17,0.508
2014-04-05 02:25:00,9701E-3,5C000400,-0724,0940,11130,026.0,045.2,0.170,754.1,01.17,0.508
2014-04-05 02:26:00,9634E-3,5C000400,-0724,0941,11130,026.0,045.2,0.170,754.0,01.17,0.508
2014-04-05 02:27:00,9667E-3,5C000400,-0724,0940,11132,026.0,045.2,0.170,754.1,01.17,0.508
2014-04-05 02:28:00,9654E-3,5C000400,-0724,0941,11232,026.1,045.2,0.170,754.1,01.17,0.508
2014-04-05 02:29:00,9480E-3,5C000400,-0724,0940,11094,026.1,045.2,0.170,754.1,01.17,0.508
2014-04-05 02:30:00,9471E-3,5C000400,-0724,0941,11048,026.1,045.2,0.170,754.1,01.17,0.508
2014-04-05 02:31:00,9551E-3,5C000400,-0724,0940,11076,026.1,045.2,0.170,754.0,01.17,0.508
2014-04-05 02:32:00,9483E-3,5C000400,-0724,0940,11201,026.1,045.2,0.170,754.0,01.17,0.508
2014-04-05 02:33:00,9401E-3,5C000400,-0724,0940,10956,026.1,045.2,0.170,754.0,01.17,0.508
2014-04-05 02:34:00,9536E-3,5C000400,-0724,0939,11052,026.1,045.2,0.170,754.0,01.17,0.508
2014-04-05 02:35:00,9511E-3,5C000400,-0724,0940,10961,026.1,045.2,0.170,754.0,01.17,0.508
2014-04-05 02:36:00,9500E-3,5C000400,-0724,0940,11098,026.1,045.2,0.170,754.0,01.17,0.508
2014-04-05 02:37:00,9419E-3,5C000400,-0724,0938,11194,026.2,045.2,0.170,754.0,01.17,0.508
2014-04-05 02:38:00,9273E-3,5C000400,-0724,0939,11185,026.2,045.2,0.170,754.0,01.17,0.508
2014-04-05 02:39:00,9153E-3,5C000400,-0724,0939,11195,026.2,045.2,0.170,754.0,01.17,0.508
2014-04-05 02:40:00,9047E-3,5C000400,-0724,0938,11134,026.2,045.2,0.170,754.0,01.17,0.508
2014-04-05 02:41:00,8819E-3,5C000400,-0724,0938,10992,026.2,045.2,0.171,754.0,01.17,0.508
2014-04-05 02:42:00,9270E-3,5C000400,-0724,0939,11191,026.2,045.2,0.170,754.0,01.17,0.508
2014-04-05 02:43:00,9256E-3,5C000400,-0724,0938,11134,026.2,045.2,0.171,754.0,01.17,0.508
2014-04-05 02:44:00,9216E-3,5C000400,-0724,0939,11263,026.2,045.2,0.170,754.0,01.17,0.508
2014-04-05 02:45:00,9094E-3,5C000400,-0724,0938,11174,026.2,045.2,0.170,754.0,01.17,0.508
2014-04-05 02:46:00,9175E-3,5C000400,-0724,0939,11046,026.3,045.2,0.171,754.0,01.17,0.508
2014-04-05 02:47:00,8961E-3,5C000400,-0724,0939,11201,026.3,045.2,0.170,754.0,01.17,0.508
2014-04-05 02:48:00,9048E-3,5C000400,-0724,0938,11046,026.3,045.2,0.171,754.0,01.17,0.508
2014-04-05 02:49:00,8943E-3,5C000400,-0724,0938,11143,026.3,045.2,0.171,754.0,01.17,0.508
2014-04-05 02:50:00,8920E-3,5C000400,-0724,0937,10997,026.3,045.2,0.171,754.0,01.17,0.508
2014-04-05 02:51:00,8966E-3,5C000400,-0724,0937,11142,026.3,045.2,0.171,754.0,01.17,0.508
2014-04-05 02:52:00,8918E-3,5C000400,-0724,0938,11190,026.3,045.2,0.171,754.0,01.17,0.508
2014-04-05 02:53:00,8971E-3,5C000400,-0724,0937,11127,026.3,045.2,0.170,754.0,01.17,0.508
2014-04-05 02:54:00,9004E-3,5C000400,-0724,0938,11104,026.3,045.3,0.171,754.0,01.17,0.508
2014-04-05 02:55:00,8951E-3,5C000400,-0724,0937,11178,026.3,045.2,0.170,754.0,01.17,0.508
2014-04-05 02:56:00,8764E-3,5C000400,-0724,0938,11131,026.3,045.2,0.171,754.1,01.17,0.508
2014-04-05 02:57:00,8680E-3,5C000400,-0724,0939,11100,026.4,045.2,0.170,754.1,01.17,0.508
2014-04-05 02:58:00,8690E-3,5C000400,-0724,0938,11205,026.4,045.2,0.170,754.0,01.17,0.508
2014-04-05 02:59:00,8906E-3,5C000400,-0724,0937,10923,026.4,045.2,0.171,754.0,01.17,0.508
2014-04-05 03:00:00,8887E-3,5C000400,-0724,0938,11208,026.4,045.2,0.170,754.0,01.17,0.508
2014-04-05 03:01:00,8774E-3,5C000400,-0724,0938,11118,026.4,045.2,0.170,754.0,01.17,0.508
2014-04-05 03:02:00,8975E-3,5C000400,-0724,0937,11027,026.4,045.2,0.170,754.0,01.17,0.508
2014-04-05 03:03:00,8717E-3,5C000400,-0724,0937,11161,026.4,045.2,0.170,754.0,01.17,0.508
2014-04-05 03:04:00,8791E-3,5C000400,-0724,0937,11268,026.4,045.2,0.170,754.0,01.17,0.508
2014-04-05 03:05:00,8608E-3,5C000400,-0724,0936,11012,026.5,045.2,0.170,754.0,01.17,0.508
2014-04-05 03:06:00,8596E-3,5C000400,-0724,0936,11291,026.5,045.3,0.170,754.0,01.17,0.508
2014-04-05 03:07:00,8390E-3,5C000400,-0724,0936,11085,026.5,045.2,0.170,754.0,01.17,0.508
2014-04-05 03:08:00,8551E-3,5C000400,-0724,0936,10985,026.5,045.2,0.170,754.0,01.17,0.508
2014-04-05 03:09:00,8525E-3,5C000400,-0724,0936,11163,026.5,045.2,0.170,754.0,01.17,0.508
2014-04-05 03:10:00,8669E-3,5C000400,-0724,0936,11201,026.5,045.2,0.170,754.0,01.17,0.508
2014-04-05 03:11:00,8692E-3,5C000400,-0724,0935,10983,026.5,045.2,0.170,754.0,01.17,0.508
2014-04-05 03:12:00,8662E-3,5C000400,-0724,0936,11169,026.5,045.2,0.170,754.0,01.17,0.508
2014-04-05 03:13:00,8447E-3,5C000400,-0724,0936,10941,026.6,045.2,0.170,754.0,01.17,0.508
2014-04-05 03:14:00,8690E-3,5C000400,-0724,0937,11264,026.6,045.3,0.171,754.0,01.17,0.508
2014-04-05 03:15:00,8614E-3,5C000400,-0724,0938,10991,026.6,045.2,0.170,754.0,01.17,0.508
2014-04-05 03:16:00,8640E-3,5C000400,-0724,0937,11188,026.6,045.3,0.170,754.0,01.17,0.508
2014-04-05 03:17:00,8658E-3,5C000400,-0724,0938,11203,026.6,045.3,0.170,754.1,01.17,0.508
2014-04-05 03:18:00,8670E-3,5C000400,-0724,0939,11014,026.6,045.3,0.170,754.1,01.17,0.508
2014-04-05 03:19:00,8342E-3,5C000400,-0724,0939,10942,026.6,045.3,0.170,754.1,01.17,0.508
2014-04-05 03:20:00,8573E-3,5C000400,-0724,0940,11198,026.6,045.2,0.170,754.1,01.17,0.508
2014-04-05 03:21:00,8381E-3,5C000400,-0724,0941,11210,026.6,045.2,0.170,754.1,01.17,0.508
2014-04-05 03:22:00,8349E-3,5C000400,-0724,0940,10905,026.6,045.3,0.170,754.1,01.17,0.508
2014-04-05 03:23:00,8398E-3,5C000400,-0724,0941,11146,026.7,045.2,0.170,754.1,01.17,0.508
2014-04-05 03:24:00,8549E-3,5C000400,-0724,0940,11133,026.7,045.3,0.170,754.1,01.17,0.508
2014-04-05 03:25:00,8429E-3,5C000400,-0724,0941,11074,026.7,045.3,0.170,754.1,01.17,0.508
2014-04-05 03:26:00,8321E-3,5C000400,-0724,0941,11184,026.7,045.2,0.170,754.1,01.17,0.508
2014-04-05 03:27:00,8460E-3,5C000400,-0724,0942,11216,026.7,045.3,0.170,754.1,01.17,0.508
2014-04-05 03:28:00,8161E-3,5C000400,-0724,0943,10996,026.7,045.3,0.170,754.1,01.17,0.508
2014-04-05 03:29:00,8334E-3,5C000400,-0724,0942,11039,026.8,045.2,0.170,754.1,01.17,0.508
2014-04-05 03:30:00,8255E-3,5C000400,-0724,0942,10819,026.7,045.3,0.170,754.0,01.17,0.508
2014-04-05 03:31:00,8305E-3,5C000400,-0724,0941,11176,026.8,045.2,0.170,754.0,01.17,0.508
2014-04-05 03:32:00,8102E-3,5C000400,-0724,0942,11134,026.8,045.3,0.170,754.0,01.17,0.508
2014-04-05 03:33:00,8166E-3,5C000400,-0724,0943,11142,026.8,045.2,0.170,754.0,01.17,0.508
2014-04-05 03:34:00,8111E-3,5C000400,-0724,0942,10906,026.8,045.3,0.170,754.0,01.17,0.508
2014-04-05 03:35:00,8150E-3,5C000400,-0724,0943,11129,026.8,045.2,0.170,754.0,01.17,0.508
2014-04-05 03:36:00,8168E-3,5C000400,-0724,0941,11198,026.9,045.3,0.170,754.0,01.17,0.508
2014-04-05 03:37:00,8238E-3,5C000400,-0724,0943,11012,026.9,045.3,0.170,754.0,01.17,0.508
2014-04-05 03:38:00,8100E-3,5C000400,-0724,0942,11207,026.9,045.2,0.170,754.0,01.17,0.508
2014-04-05 03:39:00,8002E-3,5C000400,-0724,0943,11104,026.9,045.2,0.170,754.0,01.17,0.508
2014-04-05 03:40:00,8240E-3,5C000400,-0724,0943,11172,026.9,045.3,0.170,754.0,01.17,0.508
2014-04-05 03:41:00,8127E-3,5C000400,-0724,0943,11211,026.9,045.3,0.170,754.0,01.17,0.508
2014-04-05 03:42:00,8061E-3,5C000400,-0724,0942,11168,026.9,045.2,0.170,754.0,01.17,0.508
2014-04-05 03:43:00,7980E-3,5C000400,-0724,0942,11179,026.9,045.2,0.170,754.0,01.17,0.508
2014-04-05 03:44:00,8271E-3,5C000400,-0724,0942,11156,026.9,045.3,0.170,754.0,01.17,0.508
2014-04-05 03:45:00,8127E-3,5C000400,-0724,0943,10923,026.9,045.2,0.170,754.0,01.17,0.508
2014-04-05 03:46:00,8126E-3,5C000400,-0724,0944,11151,027.0,045.3,0.170,754.0,01.17,0.508
2014-04-05 03:47:00,7957E-3,5C000400,-0724,0943,11206,027.0,045.3,0.170,754.0,01.17,0.508
2014-04-05 03:48:00,8015E-3,5C000400,-0724,0944,11056,027.0,045.3,0.170,754.0,01.17,0.508
2014-04-05 03:49:00,7972E-3,5C000400,-0724,0944,11157,027.0,045.2,0.170,754.0,01.17,0.508
2014-04-05 03:50:00,7916E-3,5C000400,-0724,0944,11023,027.0,045.3,0.170,754.0,01.17,0.508
2014-04-05 03:51:00,8170E-3,5C000400,-0724,0944,10991,027.0,045.3,0.170,754.0,01.17,0.508
2014-04-05 03:52:00,8191E-3,5C000400,-0724,0944,11013,027.0,045.3,0.170,754.0,01.17,0.508
2014-04-05 03:53:00,7894E-3,5C000400,-0724,0943,11112,027.0,045.3,0.170,754.0,01.17,0.508
2014-04-05 03:54:00,8051E-3,5C000400,-0724,0944,11106,027.1,045.3,0.170,754.0,01.17,0.508
2014-04-05 03:55:00,7912E-3,5C000400,-0724,0944,11156,027.1,045.3,0.170,754.0,01.17,0.508
2014-04-05 03:56:00,8101E-3,5C000000,-0724,0951,10880,027.1,045.3,0.645,756.0,01.16,0.508
2014-04-05 03:57:00,9162E-3,5C000000,-0724,0972,10756,027.1,045.3,0.636,755.8,01.16,0.508
2014-04-05 03:58:00,1003E-2,5C000000,-0724,0986,10564,027.1,045.3,0.628,755.8,01.16,0.508
2014-04-05 03:59:00,1095E-2,5C000000,-0724,0996,10464,027.1,045.3,0.621,755.8,01.16,0.508
2014-04-05 04:00:00,1141E-2,5C000000,-0724,1007,10497,027.1,045.2,0.613,755.8,01.16,0.508
2014-04-05 04:01:00,1231E-2,5C000000,-0724,1018,10264,027.2,045.3,0.605,755.8,01.16,0.508
2014-04-05 04:02:00,1294E-2,5C000000,-0724,1027,10123,027.2,045.3,0.598,755.8,01.16,0.508
2014-04-05 04:03:00,1354E-2,5C000000,-0724,1037,9941,027.2,045.2,0.590,755.8,01.16,0.508
2014-04-05 04:04:00,1393E-2,5C000000,-0724,1044,10026,027.2,045.2,0.581,755.8,01.16,0.508
2014-04-05 04:05:00,1431E-2,5C000000,-0724,1053,9986,027.2,045.3,0.576,755.8,01.16,0.508
2014-04-05 04:06:00,1450E-2,5C000010,-0724,1061,9876,027.2,045.2,0.568,755.8,01.16,0.508
2014-04-05 04:07:00,1551E-2,5C000010,-0724,1067,9853,027.2,045.3,0.562,755.8,01.16,0.508
2014-04-05 04:08:00,1599E-2,5C000010,-0724,1075,9748,027.2,045.2,0.552,755.8,01.16,0.508
2014-04-05 04:09:00,1606E-2,5C000010,-0724,1083,9693,027.3,045.3,0.543,755.8,01.16,0.508
2014-04-05 04:10:00,1670E-2,5C000010,-0724,1088,9525,027.3,045.3,0.534,755.8,01.16,0.508
2014-04-05 04:11:00,1700E-2,5C000010,-0724,1095,9415,027.3,045.3,0.525,755.8,01.16,0.508
2014-04-05 04:12:00,1748E-2,5C000010,-0724,1102,9467,027.3,045.3,0.517,755.8,01.16,0.508
2014-04-05 04:13:00,1801E-2,5C000010,-0724,1106,9399,027.3,045.3,0.508,755.8,01.16,0.508
2014-04-05 04:14:00,1825E-2,5C000010,-0724,1112,9541,027.3,045.2,0.500,755.8,01.16,0.508
2014-04-05 04:15:00,1897E-2,5C000010,-0724,1117,9158,027.3,045.3,0.491,755.8,01.16,0.508
2014-04-05 04:16:00,1886E-2,5C000010,-0724,1122,9287,027.4,045.3,0.483,755.8,01.16,0.508
2014-04-05 04:17:00,1953E-2,5C000010,-0724,1126,9299,027.3,045.3,0.475,755.8,01.16,0.508
2014-04-05 04:18:00,1981E-2,5C000010,-0724,1130,9232,027.4,045.3,0.466,755.8,01.16,0.508
2014-04-05 04:19:00,1980E-2,5C000010,-0724,1134,9055,027.4,045.3,0.458,755.8,01.16,0.508
2014-04-05 04:20:00,2032E-2,5C000010,-0724,1139,9186,027.4,045.3,0.451,755.8,01.16,0.508